Find Starlink 37070

NORAD ID: 68280 Int'l Des: 2026-055 Owner: SPXS Country: US Constellation: starlink operational
LEOCIRCULAR

リアルタイム位置

3D地球を読み込み中...

Starlink 37070について

説明を読み込み中...

次回通過

Passes for default location (London). Set your location on the main map for personalized predictions.

高度履歴

Loading altitude history...

軌道要素

1 68280U 26055U 26124.50002315 -.02952469 00000-0 -88175-1 0 9992
2 68280 53.1605 59.2759 0001569 102.4388 344.3536 15.37993904 6015
Epoch: May 4, 2026 • Age: 4 hours

現在のステータス

高度 473.6 km
速度 7.63 km/s
衛星直下点 -49.84°S, 105.93°W
打ち上げ日 Mar 19, 2026
運用期間 0.1 years
タイプ internet

技術仕様

分類 Payload
質量 575.00 kg
乾燥質量 530.00 kg
総質量 575.00 kg
長さ 0.30 m
直径 4.10 m
スパン 29.00 m
形状 Box + pan
製造者 SPXS
バスタイプ Starlink V2MO
フェーズステータス In Orbit
所有者/国 SPXS/US

Most Searched